CW8440 Weather Reports


Display with metric or nautical units.
time (UTC)temp
F
wind
direction
speed
MPH
gust
MPH
rain 1hr
in
rain 24hr
in
rain mn
in
humidity
%
barometer
mb
20260508122113 47 280 6.0 14.0 0.00 0.01 0.00 64 1006.7
20260508122107 47 297 7.0 14.0 0.00 0.01 0.00 65 1006.7
20260508121340 47 291 6.0 14.0 0.00 0.01 0.00 66 1006.6
20260508120608 47 244 6.0 14.0 0.00 0.01 0.00 65 1006.6
20260508120107 47 302 5.0 13.0 0.00 0.01 0.00 66 1006.7
20260508115841 46 297 5.0 13.0 0.00 0.01 0.00 66 1006.6
20260508115107 46 300 6.0 13.0 0.00 0.01 0.00 67 1006.6
20260508114608 46 287 6.0 13.0 0.00 0.01 0.00 67 1006.6
20260508114105 45 282 5.0 13.0 0.00 0.01 0.00 67 1006.6
20260508113607 45 286 5.0 13.0 0.00 0.01 0.00 67 1006.5
20260508113105 45 271 6.0 13.0 0.00 0.01 0.00 67 1006.5
20260508112836 44 244 5.0 13.0 0.00 0.01 0.00 68 1006.5
20260508112339 44 319 4.0 11.0 0.00 0.01 0.00 69 1006.5
20260508111836 44 288 3.0 10.0 0.00 0.01 0.00 69 1006.4
20260508111106 43 306 4.0 10.0 0.00 0.01 0.00 70 1006.5
20260508110611 43 280 4.0 10.0 0.00 0.01 0.00 70 1006.5
20260508110336 43 280 3.0 9.0 0.00 0.01 0.00 71 1006.5
20260508105607 43 273 3.0 8.0 0.00 0.01 0.00 72 1006.4
20260508105336 42 286 4.0 8.0 0.00 0.01 0.00 72 1006.4
20260508105225 42 250 4.0 10.0 0.00 0.01 0.00 71 1006.2
20260508104103 42 303 3.0 10.0 0.00 0.01 0.00 72 1006.2
20260508103604 41 258 4.0 10.0 0.00 0.01 0.00 73 1006.0
20260508103104 41 278 3.0 10.0 0.00 0.01 0.00 74 1005.9
20260508102605 40 275 2.0 6.0 0.00 0.01 0.00 75 1005.8
20260508102106 39 281 2.0 6.0 0.00 0.01 0.00 76 1005.7
20260508101603 39 277 2.0 4.0 0.00 0.01 0.00 77 1005.6
20260508101102 38 278 1.0 3.0 0.00 0.01 0.00 77 1005.5
20260508100603 38 278 0.0 3.0 0.00 0.01 0.00 76 1005.6
20260508100336 38 278 0.0 3.0 0.00 0.01 0.00 76 1005.6
20260508095833 38 277 1.0 3.0 0.00 0.01 0.00 76 1005.6
20260508095331 38 278 1.0 3.0 0.00 0.01 0.00 76 1005.5
20260508094604 38 278 0.0 2.0 0.00 0.01 0.00 75 1005.5
20260508094102 38 278 0.0 0.0 0.00 0.01 0.00 75 1005.5
20260508093601 38 278 0.0 0.0 0.00 0.01 0.00 74 1005.6
20260508093100 38 278 0.0 3.0 0.00 0.01 0.00 74 1005.6
20260508092601 38 278 1.0 3.0 0.00 0.01 0.00 74 1005.5
20260508092053 38 278 2.0 3.0 0.00 0.01 0.00 74 1005.5
20260508091554 38 278 2.0 3.0 0.00 0.01 0.00 74 1005.5
20260508091054 38 278 2.0 3.0 0.00 0.01 0.00 74 1005.4
20260508090554 38 277 2.0 3.0 0.00 0.01 0.00 74 1005.3
20260508090053 39 278 1.0 3.0 0.00 0.01 0.00 73 1005.3
20260508085553 39 278 1.0 3.0 0.00 0.01 0.00 73 1005.3
20260508085055 39 278 1.0 3.0 0.00 0.01 0.00 73 1005.2
20260508084822 39 278 1.0 3.0 0.00 0.02 0.00 72 1005.2
20260508084053 39 278 1.0 3.0 0.00 0.02 0.00 72 1005.1
20260508083551 39 278 1.0 3.0 0.00 0.02 0.00 71 1005.2
20260508083052 39 278 0.0 3.0 0.00 0.02 0.00 71 1005.1
20260508082552 39 278 0.0 4.0 0.00 0.02 0.00 70 1005.2
20260508082324 40 277 0.0 4.0 0.00 0.02 0.00 70 1005.1
20260508081552 40 277 1.0 4.0 0.00 0.02 0.00 70 1005.0
20260508081052 40 278 1.0 4.0 0.00 0.02 0.00 70 1005.0
20260508080551 40 277 1.0 4.0 0.00 0.02 0.00 69 1005.0
20260508080052 40 288 1.0 9.0 0.00 0.02 0.00 69 1005.0
20260508075551 40 288 2.0 9.0 0.00 0.02 0.00 69 1004.9
20260508075050 40 288 2.0 9.0 0.00 0.02 0.00 69 1005.0
20260508074550 41 311 2.0 9.0 0.00 0.02 0.00 68 1005.0
20260508074049 41 284 2.0 4.0 0.00 0.02 0.00 68 1004.9
20260508073550 41 285 2.0 4.0 0.00 0.02 0.00 68 1004.9
20260508073050 41 285 2.0 7.0 0.00 0.02 0.00 68 1004.9
20260508072550 41 276 2.0 7.0 0.00 0.02 0.00 68 1004.9
20260508072051 41 269 3.0 7.0 0.00 0.02 0.00 68 1004.9
20260508071549 41 274 3.0 7.0 0.00 0.02 0.00 68 1004.9
20260508071321 41 278 3.0 11.0 0.00 0.02 0.00 67 1005.0
20260508070548 41 281 3.0 11.0 0.00 0.02 0.00 67 1005.0
20260508070057 42 266 4.0 11.0 0.00 0.02 0.00 67 1005.0
20260508070051 42 270 3.0 11.0 0.00 0.02 0.00 67 1005.0
20260508065050 41 273 4.0 10.0 0.00 0.03 0.00 67 1005.0
20260508064550 41 283 3.0 10.0 0.00 0.03 0.00 67 1005.0
20260508064048 41 284 3.0 8.0 0.00 0.03 0.00 68 1005.0
20260508063549 40 304 2.0 8.0 0.00 0.03 0.00 69 1005.0
20260508063049 40 263 2.0 7.0 0.00 0.04 0.00 69 1005.1
20260508062822 40 279 2.0 6.0 0.00 0.05 0.00 70 1005.1
20260508062320 40 265 2.0 4.0 0.00 0.07 0.00 69 1005.1
20260508061545 40 265 2.0 6.0 0.00 0.08 0.00 69 1005.0
20260508061045 41 258 2.0 6.0 0.00 0.08 0.00 69 1005.0
20260508060815 41 274 2.0 6.0 0.00 0.09 0.00 68 1005.0
20260508060046 41 276 2.0 6.0 0.00 0.09 0.00 68 1005.0
20260508055545 42 297 1.0 3.0 0.00 0.09 0.00 66 1005.1
20260508055318 42 298 1.0 3.0 0.00 0.10 0.00 65 1005.2
20260508054818 43 298 0.0 3.0 0.00 0.10 0.00 64 1005.3
20260508054045 43 298 0.0 3.0 0.00 0.10 0.00 63 1005.4
20260508053546 44 298 0.0 7.0 0.00 0.11 0.00 62 1005.3
20260508053043 44 298 1.0 7.0 0.00 0.11 0.00 62 1005.4
20260508052544 44 297 2.0 7.0 0.00 0.11 0.00 62 1005.3
20260508052044 44 290 3.0 7.0 0.00 0.11 0.00 62 1005.3
20260508051544 44 318 3.0 10.0 0.00 0.11 0.00 61 1005.4
20260508051316 44 302 3.0 10.0 0.00 0.11 0.00 61 1005.4
20260508050543 44 308 3.0 10.0 0.00 0.11 0.00 61 1005.4
20260508050043 44 313 3.0 11.0 0.00 0.11 0.00 61 1005.4
20260508045543 44 313 4.0 11.0 0.00 0.11 0.00 61 1005.5
20260508045045 44 325 4.0 11.0 0.00 0.11 0.00 61 1005.5
20260508044544 44 292 4.0 11.0 0.00 0.11 0.00 61 1005.5
20260508044044 45 317 4.0 11.0 0.00 0.11 0.00 61 1005.6
20260508043544 45 325 4.0 11.0 0.00 0.11 0.00 60 1005.6
20260508043044 45 315 3.0 11.0 0.00 0.11 0.00 60 1005.5
20260508042815 45 310 3.0 9.0 0.00 0.11 0.00 60 1005.7
20260508042044 45 316 4.0 9.0 0.00 0.11 0.00 58 1005.8
20260508041543 46 311 4.0 10.0 0.00 0.11 0.00 59 1005.7
20260508041044 45 306 5.0 10.0 0.00 0.11 0.00 59 1005.8
20260508040542 46 302 5.0 10.0 0.00 0.11 0.00 59 1005.6
20260508040041 45 306 4.0 11.0 0.00 0.11 0.00 59 1005.7
20260508035811 45 303 4.0 11.0 0.00 0.11 0.11 60 1005.6
20260508035040 45 287 3.0 11.0 0.00 0.11 0.11 60 1005.5
20260508034541 45 322 3.0 11.0 0.00 0.11 0.11 60 1005.5
20260508034041 45 306 2.0 7.0 0.00 0.11 0.11 60 1005.6
20260508033545 46 301 1.0 6.0 0.00 0.11 0.11 58 1005.8
20260508033541 45 326 1.0 6.0 0.00 0.11 0.11 59 1005.8
20260508032814 46 298 1.0 7.0 0.00 0.11 0.11 57 1005.7
20260508032313 46 298 1.0 7.0 0.00 0.12 0.11 57 1005.6
20260508031541 47 311 2.0 6.0 0.00 0.12 0.11 57 1005.6
20260508031042 47 330 3.0 6.0 0.00 0.12 0.11 57 1005.5
20260508030543 47 311 2.0 5.0 0.00 0.12 0.11 55 1005.5
20260508030040 47 298 2.0 6.0 0.00 0.12 0.11 55 1005.5
20260508025541 47 327 1.0 10.0 0.00 0.12 0.11 56 1005.4
20260508025042 47 309 1.0 10.0 0.00 0.12 0.11 55 1005.4
20260508024541 48 307 2.0 10.0 0.00 0.13 0.11 55 1005.5
20260508024041 48 323 3.0 10.0 0.00 0.14 0.11 54 1005.4
20260508023541 48 333 3.0 10.0 0.00 0.14 0.11 54 1005.3
20260508023042 48 349 3.0 10.0 0.00 0.15 0.11 55 1005.4
20260508022540 48 300 3.0 10.0 0.00 0.16 0.11 55 1005.3
20260508022313 48 296 4.0 10.0 0.00 0.16 0.11 56 1005.4
20260508021540 48 317 3.0 10.0 0.00 0.18 0.11 56 1005.4
20260508021312 49 312 2.0 12.0 0.00 0.19 0.11 56 1005.5
20260508020538 49 319 3.0 12.0 0.00 0.21 0.11 56 1005.5
20260508020041 49 319 5.0 15.0 0.00 0.23 0.11 55 1005.5
20260508015539 49 355 5.0 15.0 0.00 0.25 0.11 55 1005.6
20260508015038 49 310 4.0 15.0 0.00 0.28 0.11 56 1005.6
20260508014811 49 309 5.0 15.0 0.00 0.31 0.11 57 1005.6
20260508014313 49 302 5.0 12.0 0.00 0.34 0.11 59 1005.7
20260508013810 49 311 4.0 11.0 0.00 0.36 0.11 61 1005.7
20260508013038 49 304 3.0 11.0 0.00 0.38 0.11 62 1005.7
20260508012808 50 296 2.0 9.0 0.00 0.40 0.11 64 1005.6
20260508012039 50 320 2.0 12.0 0.00 0.41 0.11 64 1005.6
20260508011536 50 311 3.0 12.0 0.00 0.42 0.11 64 1005.5
20260508011037 49 313 4.0 12.0 0.00 0.44 0.11 68 1005.2
20260508010538 49 315 4.0 12.0 0.00 0.46 0.11 71 1005.2
20260508010037 49 306 4.0 9.0 0.00 0.46 0.11 74 1005.1
20260508005536 48 302 4.0 9.0 0.00 0.47 0.11 77 1005.0
20260508005036 47 306 4.0 8.0 0.00 0.48 0.11 80 1005.0
20260508004536 47 309 3.0 9.0 0.00 0.49 0.11 82 1004.8
20260508004036 47 290 3.0 9.0 0.00 0.50 0.11 83 1004.9
20260508003534 47 269 3.0 9.0 0.00 0.51 0.11 82 1004.9
20260508003035 47 288 4.0 9.0 0.00 0.52 0.11 82 1004.7
20260508002535 47 282 4.0 12.0 0.00 0.52 0.11 82 1004.7
20260508002034 47 261 5.0 12.0 0.00 0.52 0.11 81 1004.6
20260508001534 48 259 6.0 12.0 0.00 0.52 0.11 81 1004.5
20260508001036 48 259 6.0 12.0 0.00 0.52 0.11 81 1004.4
20260508000534 48 275 6.0 12.0 0.00 0.53 0.11 80 1004.4
20260508000034 48 261 6.0 12.0 0.00 0.54 0.11 80 1004.2
20260507235534 48 249 6.0 12.0 0.00 0.54 0.11 80 1004.1
20260507235039 48 264 7.0 15.0 0.00 0.55 0.11 79 1004.0
20260507235035 48 268 6.0 15.0 0.00 0.55 0.11 79 1004.1
20260507234033 48 256 8.0 15.0 0.00 0.55 0.11 78 1004.1
20260507233532 48 240 9.0 15.0 0.00 0.55 0.11 78 1004.0
20260507233032 49 279 8.0 15.0 0.00 0.55 0.11 78 1003.9
20260507232534 49 242 8.0 15.0 0.00 0.55 0.11 78 1004.0
20260507232033 49 223 7.0 13.0 0.00 0.55 0.11 77 1004.0
20260507231532 49 252 7.0 12.0 0.00 0.55 0.11 77 1003.9
20260507231033 49 261 7.0 12.0 0.00 0.55 0.11 76 1003.8
20260507230532 50 274 6.0 12.0 0.00 0.55 0.11 75 1003.8
20260507230033 50 274 5.0 13.0 0.00 0.55 0.11 75 1003.8
20260507225530 50 260 6.0 13.0 0.00 0.55 0.11 75 1003.8
20260507225031 50 249 6.0 13.0 0.00 0.55 0.11 74 1003.7
20260507224529 51 244 6.0 13.0 0.00 0.55 0.11 73 1003.7
20260507224029 51 221 5.0 12.0 0.00 0.55 0.11 73 1003.6
20260507223530 51 268 3.0 10.0 0.00 0.55 0.11 73 1003.7
20260507223030 51 246 3.0 8.0 0.00 0.55 0.11 74 1003.6
20260507222530 51 250 2.0 8.0 0.00 0.55 0.11 74 1003.6
20260507222030 51 271 2.0 6.0 0.00 0.55 0.11 74 1003.5
20260507221532 51 271 3.0 6.0 0.00 0.55 0.11 74 1003.4
20260507221303 51 254 3.0 6.0 0.00 0.55 0.11 74 1003.4
20260507220528 51 256 3.0 10.0 0.00 0.55 0.11 74 1003.4
20260507220029 51 259 3.0 10.0 0.00 0.55 0.11 74 1003.5
20260507215529 51 219 3.0 10.0 0.00 0.55 0.11 74 1003.4
20260507215035 52 255 4.0 9.0 0.00 0.55 0.11 72 1003.4
20260507215028 52 223 4.0 10.0 0.00 0.55 0.11 73 1003.4
20260507214028 52 242 4.0 9.0 0.00 0.55 0.11 72 1003.4
20260507213528 53 267 5.0 11.0 0.00 0.55 0.11 71 1003.4
20260507213029 54 259 6.0 12.0 0.00 0.55 0.11 69 1003.4
20260507212758 55 229 5.0 12.0 0.00 0.55 0.11 69 1003.4
20260507212306 55 245 5.0 12.0 0.00 0.55 0.11 69 1003.5
20260507211528 55 248 6.0 12.0 0.00 0.55 0.11 69 1003.5
20260507211029 55 210 6.0 12.0 0.00 0.55 0.11 68 1003.4
20260507210527 55 264 6.0 11.0 0.00 0.55 0.11 68 1003.4
20260507210026 55 240 5.0 11.0 0.00 0.55 0.11 68 1003.4
20260507205528 55 234 6.0 10.0 0.00 0.55 0.11 69 1003.3
20260507205027 56 238 7.0 11.0 0.00 0.55 0.11 68 1003.4
20260507204529 55 198 7.0 12.0 0.00 0.55 0.11 69 1003.3
20260507204026 56 223 6.0 12.0 0.00 0.55 0.11 68 1003.2
20260507203528 56 193 6.0 14.0 0.00 0.55 0.11 68 1003.2
20260507203026 56 218 7.0 14.0 0.00 0.55 0.11 68 1003.2
20260507202759 56 233 7.0 17.0 0.00 0.55 0.11 67 1003.3
20260507202257 56 194 7.0 17.0 0.00 0.55 0.11 67 1003.3
20260507201527 56 171 7.0 17.0 0.00 0.55 0.11 68 1003.3
20260507201257 56 177 8.0 17.0 0.00 0.55 0.11 66 1003.4
20260507200759 56 221 7.0 16.0 0.00 0.55 0.11 66 1003.4
20260507200026 56 275 8.0 16.0 0.00 0.55 0.11 68 1003.4
20260507195526 56 195 8.0 17.0 0.00 0.55 0.11 66 1003.4
20260507195024 56 220 8.0 17.0 0.00 0.55 0.11 65 1003.5
20260507194525 56 254 9.0 16.0 0.00 0.55 0.11 66 1003.5
20260507194024 56 200 8.0 19.0 0.00 0.55 0.11 65 1003.4
20260507193524 56 232 8.0 19.0 0.01 0.55 0.11 66 1003.4
20260507193254 56 229 9.0 19.0 0.01 0.55 0.11 64 1003.5
20260507192525 56 190 10.0 19.0 0.01 0.55 0.11 65 1003.5
20260507192025 56 190 10.0 18.0 0.01 0.55 0.11 64 1003.5
20260507191525 57 206 10.0 18.0 0.01 0.55 0.11 62 1003.5
20260507191023 57 221 10.0 18.0 0.01 0.55 0.11 60 1003.5
20260507190755 57 204 10.0 19.0 0.01 0.55 0.11 61 1003.5
20260507190024 57 184 10.0 19.0 0.01 0.55 0.11 66 1003.6
20260507185525 57 201 9.0 19.0 0.01 0.55 0.11 66 1003.6
20260507185025 57 201 9.0 18.0 0.01 0.55 0.11 69 1003.5
20260507184526 57 267 9.0 20.0 0.01 0.55 0.11 69 1003.6
20260507184024 57 188 10.0 20.0 0.01 0.55 0.11 70 1003.6
20260507183525 57 217 11.0 20.0 0.00 0.54 0.10 71 1003.7
20260507183024 57 200 11.0 20.0 0.00 0.54 0.10 71 1003.7
20260507182524 57 181 10.0 19.0 0.00 0.54 0.10 71 1003.7
20260507182023 57 173 10.0 18.0 0.00 0.54 0.10 70 1003.7
20260507181525 57 225 10.0 18.0 0.00 0.54 0.10 69 1003.7
20260507181026 58 215 9.0 16.0 0.00 0.54 0.10 69 1003.6
20260507180521 58 234 9.0 16.0 0.00 0.54 0.10 69 1003.6
20260507180021 57 239 9.0 16.0 0.00 0.54 0.10 69 1003.8
20260507175522 58 242 9.0 16.0 0.00 0.54 0.10 68 1003.9
20260507175022 58 221 8.0 15.0 0.00 0.54 0.10 69 1003.9
20260507174522 59 196 7.0 15.0 0.00 0.54 0.10 66 1003.8
20260507174253 58 284 7.0 14.0 0.00 0.54 0.10 65 1003.8
20260507173523 59 240 7.0 12.0 0.00 0.54 0.10 62 1003.7
20260507173020 59 225 6.0 12.0 0.00 0.54 0.10 63 1003.8
20260507172521 59 274 7.0 13.0 0.00 0.54 0.10 66 1003.8
20260507172019 58 193 7.0 13.0 0.00 0.54 0.10 66 1003.7
20260507171520 58 190 7.0 13.0 0.00 0.54 0.10 64 1003.7
20260507171020 58 236 7.0 13.0 0.00 0.54 0.10 68 1003.7
20260507170520 58 225 6.0 12.0 0.00 0.54 0.10 66 1003.8
20260507170019 58 251 6.0 12.0 0.00 0.54 0.10 69 1003.8
20260507165519 58 259 7.0 14.0 0.00 0.54 0.10 69 1003.8
20260507165252 57 255 7.0 14.0 0.00 0.54 0.10 71 1003.9
20260507164520 56 219 6.0 14.0 0.00 0.54 0.10 72 1004.0
20260507164020 55 202 6.0 15.0 0.00 0.54 0.10 78 1004.1
20260507163519 53 138 6.0 15.0 0.00 0.54 0.10 79 1004.1
20260507163020 53 134 5.0 10.0 0.00 0.54 0.10 79 1004.1
20260507162519 52 170 4.0 9.0 0.00 0.54 0.10 80 1004.1
20260507162019 52 198 4.0 9.0 0.00 0.54 0.10 79 1004.0
20260507161519 53 170 5.0 10.0 0.00 0.54 0.10 79 1004.0
20260507161022 53 159 6.0 10.0 0.00 0.54 0.10 78 1004.1
20260507160520 54 178 5.0 10.0 0.00 0.54 0.10 76 1004.2
20260507160020 55 146 5.0 9.0 0.00 0.54 0.10 75 1004.2
20260507155520 55 144 6.0 10.0 0.00 0.54 0.10 76 1004.3
20260507155019 56 195 5.0 10.0 0.00 0.54 0.10 73 1004.4
20260507154751 57 128 3.0 8.0 0.00 0.54 0.10 74 1004.5
20260507154019 57 173 3.0 7.0 0.00 0.54 0.10 70 1004.4
20260507153525 57 54 3.0 7.0 0.00 0.54 0.10 73 1004.6
20260507153019 57 309 2.0 5.0 0.00 0.54 0.10 70 1004.7
20260507152520 57 100 1.0 5.0 0.00 0.54 0.10 71 1004.7
20260507152019 57 42 2.0 8.0 0.00 0.54 0.10 65 1004.7
20260507151520 57 38 2.0 8.0 0.00 0.54 0.10 68 1004.8
20260507151020 57 0 2.0 8.0 0.00 0.54 0.10 67 1004.8
20260507150523 57 314 2.0 7.0 0.00 0.54 0.10 72 1004.7
20260507150519 57 315 2.0 8.0 0.00 0.54 0.10 70 1004.9
20260507145517 57 328 2.0 8.0 0.00 0.54 0.10 75 1004.6
20260507145017 56 304 2.0 8.0 0.00 0.54 0.10 77 1004.6
20260507144517 56 300 2.0 6.0 0.00 0.54 0.10 77 1004.7
20260507144249 55 321 2.0 9.0 0.00 0.54 0.10 77 1004.8
20260507143517 55 312 2.0 9.0 0.00 0.54 0.10 76 1004.8
20260507143018 55 312 3.0 9.0 0.00 0.54 0.10 75 1004.8
20260507142517 55 317 2.0 9.0 0.00 0.54 0.10 77 1004.9
20260507142018 54 288 2.0 7.0 0.00 0.54 0.10 78 1004.9
20260507141518 54 286 2.0 7.0 0.00 0.54 0.10 81 1005.2
20260507141018 53 280 2.0 8.0 0.00 0.54 0.10 82 1005.2
20260507140524 52 252 2.0 8.0 0.00 0.54 0.10 84 1005.4
20260507140519 53 257 1.0 8.0 0.00 0.54 0.10 82 1005.1
20260507135518 52 294 2.0 8.0 0.00 0.54 0.10 85 1005.4
20260507135017 52 300 2.0 7.0 0.00 0.54 0.10 88 1005.4
20260507134513 51 290 2.0 7.0 0.00 0.54 0.10 88 1005.2
20260507134247 50 288 1.0 5.0 0.00 0.54 0.10 88 1005.2
20260507133513 49 287 1.0 8.0 0.00 0.54 0.10 89 1005.7
20260507133011 49 287 2.0 8.0 0.00 0.54 0.10 90 1005.8
20260507132513 48 267 3.0 8.0 0.00 0.54 0.10 90 1006.0
20260507132241 48 309 3.0 8.0 0.00 0.54 0.10 90 1005.8
20260507131513 48 296 3.0 7.0 0.00 0.54 0.10 90 1005.7
20260507131013 48 299 2.0 7.0 0.00 0.54 0.10 90 1005.3
20260507130511 48 313 2.0 7.0 0.00 0.54 0.10 91 1005.1
20260507130012 48 304 3.0 7.0 0.00 0.54 0.10 91 1005.2
20260507125512 48 279 2.0 7.0 0.00 0.54 0.10 91 1005.2
20260507125013 48 298 2.0 6.0 0.00 0.54 0.10 91 1005.2
20260507124510 48 314 2.0 7.0 0.00 0.54 0.10 92 1005.4
20260507124010 48 313 2.0 7.0 0.00 0.54 0.10 92 1005.8
20260507123509 48 301 2.0 7.0 0.00 0.54 0.10 92 1005.3
20260507123243 48 301 2.0 7.0 0.00 0.54 0.10 92 1005.4
20260507122509 47 288 2.0 6.0 0.00 0.54 0.10 93 1005.2